UTC,SampNum,MM/DD/YYYY,HH:MM:SS,VbatMain,VbiasPos,VbiasNeg,TC_cont,Humidity,Vrse,Vrse_std,Vk,Vk_std,Ik,Ib,Opt_PN,Opt_SN,Moxy,O2satper,TC_opt,Dphase,Bphase,Rphase,Bamp,Bpot,Ramp,Opt_rawtemp,TC_MCat,Cond,Pres,pSal,day_MC,month_MC,year_MC,time_MC,pH,CHa,NTU,flow,unix_time,TC_cont_flg,Moxy_flg,O2satper_flg,pSal_flg,pH_flg,CHa_flg,NTU_flg
2024-03-01 00:00:02+00:00,,,,,,,13.8396,,,,,,,,,,,,,,,,,,,,,3.92584,,32.6496,,,,,,,,0,1709251202,2,9,9,2,9,9,9
2024-03-01 00:20:02+00:00,,,,,,,13.9018,,,,,,,,,,,,,,,,,,,,,3.92744,,32.6116,,,,,,,,0,1709252402,2,9,9,2,9,9,9
2024-03-01 00:40:02+00:00,,,,,,,13.9821,,,,,,,,,,,,,,,,,,,,,3.93228,,32.5882,,,,,,,,6.54666666666667,1709253602,2,9,9,2,9,9,9
2024-03-01 01:00:01+00:00,,,,,,,14.059,,,,,,,,,,,,,,,,,,,,,3.93647,,32.5618,,,,,,,,0.506666666666667,1709254801,2,9,9,2,9,9,9
2024-03-01 01:20:02+00:00,,,,,,,14.1181,,,,,,,,,,,,,,,,,,,,,3.94048,,32.5488,,,,,,,,6.34666666666667,1709256002,2,9,9,2,9,9,9
2024-03-01 01:40:02+00:00,,,,,,,14.1444,,,,,,,,,,,,,,,,,,,,,3.94261,,32.5462,,,,,,,,0.68,1709257202,2,9,9,2,9,9,9
2024-03-01 02:00:02+00:00,,,,,,,14.1518,,,,,,,,,,,,,,,,,,,,,3.94268,,32.5406,,,,,,,,6.66666666666667,1709258402,2,9,9,2,9,9,9
2024-03-01 02:20:02+00:00,,,,,,,14.1384,,,,,,,,,,,,,,,,,,,,,3.9419,,32.5447,,,,,,,,0.226666666666667,1709259602,2,9,9,2,9,9,9
2024-03-01 02:40:02+00:00,,,,,,,14.1622,,,,,,,,,,,,,,,,,,,,,3.94208,,32.5263,,,,,,,,2.17333333333333,1709260802,2,9,9,2,9,9,9
2024-03-01 03:00:02+00:00,,,,,,,14.1855,,,,,,,,,,,,,,,,,,,,,3.9423,,32.5086,,,,,,,,0,1709262002,2,9,9,2,9,9,9
2024-03-01 03:20:02+00:00,,,,,,,14.2181,,,,,,,,,,,,,,,,,,,,,3.94073,,32.4668,,,,,,,,0.0533333333333333,1709263202,2,9,9,2,9,9,9
2024-03-01 03:40:02+00:00,,,,,,,14.2155,,,,,,,,,,,,,,,,,,,,,3.93928,,32.4556,,,,,,,,0,1709264402,2,9,9,2,9,9,9
2024-03-01 04:00:02+00:00,,,,,,,14.2065,,,,,,,,,,,,,,,,,,,,,3.9375,,32.4469,,,,,,,,0.0933333333333333,1709265602,2,9,9,2,9,9,9
2024-03-01 04:20:02+00:00,,,,,,,14.2038,,,,,,,,,,,,,,,,,,,,,3.93654,,32.4403,,,,,,,,11.8133333333333,1709266802,2,9,9,2,9,9,9
2024-03-01 04:40:02+00:00,,,,,,,14.2052,,,,,,,,,,,,,,,,,,,,,3.93593,,32.4335,,,,,,,,0.0533333333333333,1709268002,2,9,9,2,9,9,9
2024-03-01 05:00:02+00:00,,,,,,,14.1715,,,,,,,,,,,,,,,,,,,,,3.9343,,32.4469,,,,,,,,0.2,1709269202,2,9,9,2,9,9,9
2024-03-01 05:20:02+00:00,,,,,,,14.1639,,,,,,,,,,,,,,,,,,,,,3.93302,,32.4416,,,,,,,,8.28,1709270402,2,9,9,2,9,9,9
2024-03-01 05:40:02+00:00,,,,,,,14.1425,,,,,,,,,,,,,,,,,,,,,3.93208,,32.451,,,,,,,,0,1709271602,2,9,9,2,9,9,9
2024-03-01 06:00:02+00:00,,,,,,,14.0587,,,,,,,,,,,,,,,,,,,,,3.9301,,32.5033,,,,,,,,10.24,1709272802,2,9,9,2,9,9,9
2024-03-01 06:20:02+00:00,,,,,,,13.9836,,,,,,,,,,,,,,,,,,,,,3.92906,,32.5573,,,,,,,,3.49333333333333,1709274002,2,9,9,2,9,9,9
2024-03-01 06:40:02+00:00,,,,,,,13.8765,,,,,,,,,,,,,,,,,,,,,3.92377,,32.5992,,,,,,,,0,1709275202,2,9,9,2,9,9,9
2024-03-01 07:00:02+00:00,,,,,,,13.8097,,,,,,,,,,,,,,,,,,,,,3.91986,,32.6197,,,,,,,,5.8,1709276402,2,9,9,2,9,9,9
2024-03-01 07:20:02+00:00,,,,,,,13.7663,,,,,,,,,,,,,,,,,,,,,3.91517,,32.613,,,,,,,,1.89333333333333,1709277602,2,9,9,2,9,9,9
2024-03-01 07:40:02+00:00,,,,,,,13.7394,,,,,,,,,,,,,,,,,,,,,3.91201,,32.6066,,,,,,,,2.36,1709278802,2,9,9,2,9,9,9
2024-03-01 08:00:02+00:00,,,,,,,13.6763,,,,,,,,,,,,,,,,,,,,,3.90966,,32.6385,,,,,,,,0,1709280002,2,9,9,2,9,9,9
2024-03-01 08:20:02+00:00,,,,,,,13.5703,,,,,,,,,,,,,,,,,,,,,3.90533,,32.6887,,,,,,,,0.186666666666667,1709281202,2,9,9,2,9,9,9
2024-03-01 08:40:02+00:00,,,,,,,13.4608,,,,,,,,,,,,,,,,,,,,,3.89929,,32.7261,,,,,,,,0.546666666666667,1709282402,2,9,9,2,9,9,9
2024-03-01 09:00:02+00:00,,,,,,,13.3688,,,,,,,,,,,,,,,,,,,,,3.89325,,32.7486,,,,,,,,0,1709283602,2,9,9,2,9,9,9
2024-03-01 09:20:02+00:00,,,,,,,13.3452,,,,,,,,,,,,,,,,,,,,,3.88861,,32.7255,,,,,,,,0,1709284802,2,9,9,2,9,9,9
2024-03-01 09:40:02+00:00,,,,,,,13.3439,,,,,,,,,,,,,,,,,,,,,3.88819,,32.7226,,,,,,,,5.73333333333333,1709286002,2,9,9,2,9,9,9
2024-03-01 10:00:02+00:00,,,,,,,13.372,,,,,,,,,,,,,,,,,,,,,3.88741,,32.6912,,,,,,,,0.213333333333333,1709287202,2,9,9,2,9,9,9
2024-03-01 10:20:02+00:00,,,,,,,13.4234,,,,,,,,,,,,,,,,,,,,,3.88821,,32.6545,,,,,,,,0,1709288402,2,9,9,2,9,9,9
2024-03-01 10:40:02+00:00,,,,,,,13.4677,,,,,,,,,,,,,,,,,,,,,3.89061,,32.6391,,,,,,,,0,1709289602,2,9,9,2,9,9,9
2024-03-01 11:00:01+00:00,,,,,,,13.5724,,,,,,,,,,,,,,,,,,,,,3.89553,,32.5955,,,,,,,,7.38666666666667,1709290801,2,9,9,2,9,9,9
2024-03-01 11:20:02+00:00,,,,,,,13.7031,,,,,,,,,,,,,,,,,,,,,3.90134,,32.5383,,,,,,,,0.773333333333333,1709292002,2,9,9,2,9,9,9
2024-03-01 11:40:02+00:00,,,,,,,13.7765,,,,,,,,,,,,,,,,,,,,,3.90171,,32.4795,,,,,,,,0,1709293202,2,9,9,2,9,9,9
2024-03-01 12:00:02+00:00,,,,,,,13.8084,,,,,,,,,,,,,,,,,,,,,3.90013,,32.4378,,,,,,,,0,1709294402,2,9,9,2,9,9,9
2024-03-01 12:20:02+00:00,,,,,,,13.8194,,,,,,,,,,,,,,,,,,,,,3.89748,,32.404,,,,,,,,0,1709295602,2,9,9,2,9,9,9
2024-03-01 12:40:02+00:00,,,,,,,13.8444,,,,,,,,,,,,,,,,,,,,,3.89688,,32.3773,,,,,,,,0,1709296802,2,9,9,2,9,9,9
2024-03-01 13:00:02+00:00,,,,,,,13.8853,,,,,,,,,,,,,,,,,,,,,3.89876,,32.3602,,,,,,,,0,1709298002,2,9,9,2,9,9,9
2024-03-01 13:20:02+00:00,,,,,,,13.9296,,,,,,,,,,,,,,,,,,,,,3.90172,,32.3503,,,,,,,,0,1709299202,2,9,9,2,9,9,9
2024-03-01 13:40:02+00:00,,,,,,,13.9849,,,,,,,,,,,,,,,,,,,,,3.90467,,32.3311,,,,,,,,0,1709300402,2,9,9,2,9,9,9
2024-03-01 14:00:02+00:00,,,,,,,14.008,,,,,,,,,,,,,,,,,,,,,3.9071,,32.334,,,,,,,,1.30666666666667,1709301602,2,9,9,2,9,9,9
2024-03-01 14:20:02+00:00,,,,,,,14.0128,,,,,,,,,,,,,,,,,,,,,3.90843,,32.3422,,,,,,,,0,1709302802,2,9,9,2,9,9,9
2024-03-01 14:40:02+00:00,,,,,,,13.9789,,,,,,,,,,,,,,,,,,,,,3.90332,,32.3236,,,,,,,,0,1709304002,2,9,9,2,9,9,9
2024-03-01 15:00:02+00:00,,,,,,,13.9969,,,,,,,,,,,,,,,,,,,,,3.90059,,32.2833,,,,,,,,0,1709305202,2,9,9,2,9,9,9
2024-03-01 15:20:02+00:00,,,,,,,13.9902,,,,,,,,,,,,,,,,,,,,,3.90016,,32.285,,,,,,,,0,1709306402,2,9,9,2,9,9,9
2024-03-01 15:40:02+00:00,,,,,,,14.0267,,,,,,,,,,,,,,,,,,,,,3.90193,,32.2706,,,,,,,,0,1709307602,2,9,9,2,9,9,9
2024-03-01 16:00:02+00:00,,,,,,,14.0761,,,,,,,,,,,,,,,,,,,,,3.90675,,32.2736,,,,,,,,2.24,1709308802,2,9,9,2,9,9,9
2024-03-01 16:20:02+00:00,,,,,,,14.1122,,,,,,,,,,,,,,,,,,,,,3.9117,,32.289,,,,,,,,0,1709310002,2,9,9,2,9,9,9
2024-03-01 16:40:02+00:00,,,,,,,14.1406,,,,,,,,,,,,,,,,,,,,,3.91454,,32.2912,,,,,,,,0,1709311202,2,9,9,2,9,9,9
2024-03-01 17:00:02+00:00,,,,,,,14.1585,,,,,,,,,,,,,,,,,,,,,3.91553,,32.2853,,,,,,,,0,1709312402,2,9,9,2,9,9,9
2024-03-01 17:20:02+00:00,,,,,,,14.1554,,,,,,,,,,,,,,,,,,,,,3.91581,,32.2905,,,,,,,,0,1709313602,2,9,9,2,9,9,9
2024-03-01 17:40:02+00:00,,,,,,,14.1505,,,,,,,,,,,,,,,,,,,,,3.91554,,32.2922,,,,,,,,0,1709314802,2,9,9,2,9,9,9
2024-03-01 18:00:02+00:00,,,,,,,14.1646,,,,,,,,,,,,,,,,,,,,,3.91494,,32.2748,,,,,,,,0,1709316002,2,9,9,2,9,9,9
2024-03-01 18:20:02+00:00,,,,,,,14.1802,,,,,,,,,,,,,,,,,,,,,3.9156,,32.2678,,,,,,,,0,1709317202,2,9,9,2,9,9,9
2024-03-01 18:40:02+00:00,,,,,,,14.1684,,,,,,,,,,,,,,,,,,,,,3.91505,,32.2726,,,,,,,,0,1709318402,2,9,9,2,9,9,9
2024-03-01 19:00:02+00:00,,,,,,,14.114,,,,,,,,,,,,,,,,,,,,,3.91276,,32.2972,,,,,,,,0,1709319602,2,9,9,2,9,9,9
2024-03-01 19:20:02+00:00,,,,,,,14.0462,,,,,,,,,,,,,,,,,,,,,3.90993,,32.328,,,,,,,,0,1709320802,2,9,9,2,9,9,9
2024-03-01 19:40:02+00:00,,,,,,,14.0038,,,,,,,,,,,,,,,,,,,,,3.90881,,32.3534,,,,,,,,0,1709322002,2,9,9,2,9,9,9
2024-03-01 20:00:02+00:00,,,,,,,13.9591,,,,,,,,,,,,,,,,,,,,,3.90912,,32.3938,,,,,,,,0,1709323202,2,9,9,2,9,9,9
2024-03-01 20:20:02+00:00,,,,,,,13.9216,,,,,,,,,,,,,,,,,,,,,3.90829,,32.4177,,,,,,,,0,1709324402,2,9,9,2,9,9,9
2024-03-01 20:40:02+00:00,,,,,,,13.9535,,,,,,,,,,,,,,,,,,,,,3.91005,,32.4071,,,,,,,,0,1709325602,2,9,9,2,9,9,9
2024-03-01 21:00:02+00:00,,,,,,,13.9113,,,,,,,,,,,,,,,,,,,,,3.90963,,32.4388,,,,,,,,0,1709326802,2,9,9,2,9,9,9
2024-03-01 21:20:02+00:00,,,,,,,13.8663,,,,,,,,,,,,,,,,,,,,,3.90891,,32.4702,,,,,,,,0,1709328002,2,9,9,2,9,9,9
2024-03-01 21:40:02+00:00,,,,,,,13.7987,,,,,,,,,,,,,,,,,,,,,3.90904,,32.5286,,,,,,,,0,1709329202,2,9,9,2,9,9,9
2024-03-01 22:00:02+00:00,,,,,,,13.7431,,,,,,,,,,,,,,,,,,,,,3.90827,,32.5688,,,,,,,,0,1709330402,2,9,9,2,9,9,9
2024-03-01 22:20:02+00:00,,,,,,,13.7435,,,,,,,,,,,,,,,,,,,,,3.9096,,32.5808,,,,,,,,0,1709331602,2,9,9,2,9,9,9
2024-03-01 22:40:02+00:00,,,,,,,13.7297,,,,,,,,,,,,,,,,,,,,,3.90937,,32.5903,,,,,,,,0,1709332802,2,9,9,2,9,9,9
2024-03-01 23:00:02+00:00,,,,,,,13.7622,,,,,,,,,,,,,,,,,,,,,3.90981,,32.5668,,,,,,,,0,1709334002,2,9,9,2,9,9,9
2024-03-01 23:20:02+00:00,,,,,,,13.8069,,,,,,,,,,,,,,,,,,,,,3.91199,,32.5491,,,,,,,,0,1709335202,2,9,9,2,9,9,9
2024-03-01 23:40:02+00:00,,,,,,,13.8194,,,,,,,,,,,,,,,,,,,,,3.91295,,32.5474,,,,,,,,0,1709336402,2,9,9,2,9,9,9
2024-03-02 00:00:02+00:00,,,,,,,13.8163,,,,,,,,,,,,,,,,,,,,,3.91387,,32.5585,,,,,,,,0,1709337602,2,9,9,2,9,9,9
2024-03-02 00:20:02+00:00,,,,,,,13.8146,,,,,,,,,,,,,,,,,,,,,3.91377,,32.5591,,,,,,,,0,1709338802,2,9,9,2,9,9,9
2024-03-02 00:40:02+00:00,,,,,,,13.7972,,,,,,,,,,,,,,,,,,,,,3.91226,,32.5597,,,,,,,,0,1709340002,2,9,9,2,9,9,9
2024-03-02 01:00:02+00:00,,,,,,,13.774,,,,,,,,,,,,,,,,,,,,,3.91086,,32.5665,,,,,,,,0,1709341202,2,9,9,2,9,9,9
2024-03-02 01:20:02+00:00,,,,,,,13.7543,,,,,,,,,,,,,,,,,,,,,3.90992,,32.5746,,,,,,,,0,1709342402,2,9,9,2,9,9,9
2024-03-02 01:40:01+00:00,,,,,,,13.7207,,,,,,,,,,,,,,,,,,,,,3.90781,,32.5835,,,,,,,,0,1709343601,2,9,9,2,9,9,9
2024-03-02 02:00:02+00:00,,,,,,,13.691,,,,,,,,,,,,,,,,,,,,,3.90585,,32.5906,,,,,,,,10.2533333333333,1709344802,2,9,9,2,9,9,9
2024-03-02 02:20:02+00:00,,,,,,,13.6626,,,,,,,,,,,,,,,,,,,,,3.90343,,32.5923,,,,,,,,8.04,1709346002,2,9,9,2,9,9,9
2024-03-02 02:40:02+00:00,,,,,,,13.657,,,,,,,,,,,,,,,,,,,,,3.9019,,32.5828,,,,,,,,8.92,1709347202,2,9,9,2,9,9,9
2024-03-02 03:00:02+00:00,,,,,,,13.6686,,,,,,,,,,,,,,,,,,,,,3.90212,,32.5749,,,,,,,,0.106666666666667,1709348402,2,9,9,2,9,9,9
2024-03-02 03:20:02+00:00,,,,,,,13.6825,,,,,,,,,,,,,,,,,,,,,3.90232,,32.565,,,,,,,,5.8,1709349602,2,9,9,2,9,9,9
2024-03-02 03:40:02+00:00,,,,,,,13.675,,,,,,,,,,,,,,,,,,,,,3.90009,,32.5507,,,,,,,,20.2266666666667,1709350802,2,9,9,2,9,9,9
2024-03-02 04:00:02+00:00,,,,,,,13.6971,,,,,,,,,,,,,,,,,,,,,3.89968,,32.5281,,,,,,,,0.32,1709352002,2,9,9,2,9,9,9
2024-03-02 04:20:01+00:00,,,,,,,13.7273,,,,,,,,,,,,,,,,,,,,,3.90034,,32.5086,,,,,,,,0.106666666666667,1709353201,2,9,9,2,9,9,9
2024-03-02 04:40:02+00:00,,,,,,,13.7559,,,,,,,,,,,,,,,,,,,,,3.90177,,32.4976,,,,,,,,0.306666666666667,1709354402,2,9,9,2,9,9,9
2024-03-02 05:00:02+00:00,,,,,,,13.7715,,,,,,,,,,,,,,,,,,,,,3.90308,,32.4964,,,,,,,,5.90666666666667,1709355602,2,9,9,2,9,9,9
2024-03-02 05:20:02+00:00,,,,,,,13.7969,,,,,,,,,,,,,,,,,,,,,3.9042,,32.4853,,,,,,,,6.77333333333333,1709356802,2,9,9,2,9,9,9
2024-03-02 05:40:02+00:00,,,,,,,13.795,,,,,,,,,,,,,,,,,,,,,3.90451,,32.4898,,,,,,,,0,1709358002,2,9,9,2,9,9,9
2024-03-02 06:00:01+00:00,,,,,,,13.8065,,,,,,,,,,,,,,,,,,,,,3.90496,,32.4842,,,,,,,,6.94666666666667,1709359201,2,9,9,2,9,9,9
2024-03-02 06:20:02+00:00,,,,,,,13.8121,,,,,,,,,,,,,,,,,,,,,3.90424,,32.4729,,,,,,,,5.45333333333333,1709360402,2,9,9,2,9,9,9
2024-03-02 06:40:02+00:00,,,,,,,13.838,,,,,,,,,,,,,,,,,,,,,3.90495,,32.4575,,,,,,,,5.6,1709361602,2,9,9,2,9,9,9
2024-03-02 07:00:02+00:00,,,,,,,13.799,,,,,,,,,,,,,,,,,,,,,3.90515,,32.4924,,,,,,,,6.30666666666667,1709362802,2,9,9,2,9,9,9
2024-03-02 07:20:02+00:00,,,,,,,13.6291,,,,,,,,,,,,,,,,,,,,,3.90159,,32.6037,,,,,,,,0,1709364002,2,9,9,2,9,9,9
2024-03-02 07:40:02+00:00,,,,,,,13.5443,,,,,,,,,,,,,,,,,,,,,3.89716,,32.6348,,,,,,,,0.733333333333333,1709365202,2,9,9,2,9,9,9
2024-03-02 08:00:02+00:00,,,,,,,13.4828,,,,,,,,,,,,,,,,,,,,,3.89271,,32.6458,,,,,,,,0,1709366402,2,9,9,2,9,9,9
2024-03-02 08:20:02+00:00,,,,,,,13.4783,,,,,,,,,,,,,,,,,,,,,3.89286,,32.6511,,,,,,,,0.253333333333333,1709367602,2,9,9,2,9,9,9
2024-03-02 08:40:02+00:00,,,,,,,13.4453,,,,,,,,,,,,,,,,,,,,,3.89189,,32.6703,,,,,,,,0.493333333333333,1709368802,2,9,9,2,9,9,9
2024-03-02 09:00:02+00:00,,,,,,,13.3853,,,,,,,,,,,,,,,,,,,,,3.88776,,32.683,,,,,,,,0.306666666666667,1709370002,2,9,9,2,9,9,9
2024-03-02 09:20:02+00:00,,,,,,,13.3527,,,,,,,,,,,,,,,,,,,,,3.88377,,32.6736,,,,,,,,5.70666666666667,1709371202,2,9,9,2,9,9,9
2024-03-02 09:40:01+00:00,,,,,,,13.3716,,,,,,,,,,,,,,,,,,,,,3.88604,,32.6786,,,,,,,,0.106666666666667,1709372401,2,9,9,2,9,9,9
2024-03-02 10:00:02+00:00,,,,,,,13.3779,,,,,,,,,,,,,,,,,,,,,3.88747,,32.6866,,,,,,,,0,1709373602,2,9,9,2,9,9,9
2024-03-02 10:20:02+00:00,,,,,,,13.3523,,,,,,,,,,,,,,,,,,,,,3.88393,,32.6755,,,,,,,,0.306666666666667,1709374802,2,9,9,2,9,9,9
2024-03-02 10:40:02+00:00,,,,,,,13.3456,,,,,,,,,,,,,,,,,,,,,3.88005,,32.6448,,,,,,,,0,1709376002,2,9,9,2,9,9,9
2024-03-02 11:00:02+00:00,,,,,,,13.3246,,,,,,,,,,,,,,,,,,,,,3.88076,,32.6695,,,,,,,,0,1709377202,2,9,9,2,9,9,9
2024-03-02 11:20:02+00:00,,,,,,,13.3098,,,,,,,,,,,,,,,,,,,,,3.88007,,32.6757,,,,,,,,5.70666666666667,1709378402,2,9,9,2,9,9,9
2024-03-02 11:40:01+00:00,,,,,,,13.3289,,,,,,,,,,,,,,,,,,,,,3.87981,,32.6569,,,,,,,,12.92,1709379601,2,9,9,2,9,9,9
2024-03-02 12:00:02+00:00,,,,,,,13.3213,,,,,,,,,,,,,,,,,,,,,3.88048,,32.6697,,,,,,,,0,1709380802,2,9,9,2,9,9,9
2024-03-02 12:20:02+00:00,,,,,,,13.3075,,,,,,,,,,,,,,,,,,,,,3.87999,,32.6769,,,,,,,,0,1709382002,2,9,9,2,9,9,9
2024-03-02 12:40:01+00:00,,,,,,,13.2995,,,,,,,,,,,,,,,,,,,,,3.87629,,32.6491,,,,,,,,0,1709383201,2,9,9,2,9,9,9
2024-03-02 13:00:02+00:00,,,,,,,13.2953,,,,,,,,,,,,,,,,,,,,,3.87589,,32.6489,,,,,,,,0,1709384402,2,9,9,2,9,9,9
2024-03-02 13:20:02+00:00,,,,,,,13.264,,,,,,,,,,,,,,,,,,,,,3.87364,,32.6547,,,,,,,,0,1709385602,2,9,9,2,9,9,9
2024-03-02 13:40:02+00:00,,,,,,,13.2646,,,,,,,,,,,,,,,,,,,,,3.87353,,32.6532,,,,,,,,0,1709386802,2,9,9,2,9,9,9
2024-03-02 14:00:02+00:00,,,,,,,13.2583,,,,,,,,,,,,,,,,,,,,,3.87129,,32.6375,,,,,,,,0,1709388002,2,9,9,2,9,9,9
2024-03-02 14:20:02+00:00,,,,,,,13.2527,,,,,,,,,,,,,,,,,,,,,3.87084,,32.6382,,,,,,,,0.24,1709389202,2,9,9,2,9,9,9
2024-03-02 14:40:02+00:00,,,,,,,13.2746,,,,,,,,,,,,,,,,,,,,,3.87384,,32.6475,,,,,,,,0,1709390402,2,9,9,2,9,9,9
2024-03-02 15:00:01+00:00,,,,,,,13.263,,,,,,,,,,,,,,,,,,,,,3.87205,,32.6407,,,,,,,,5.76,1709391601,2,9,9,2,9,9,9
2024-03-02 15:20:02+00:00,,,,,,,13.2373,,,,,,,,,,,,,,,,,,,,,3.8673,,32.618,,,,,,,,5.54666666666667,1709392802,2,9,9,2,9,9,9
2024-03-02 15:40:01+00:00,,,,,,,13.2478,,,,,,,,,,,,,,,,,,,,,3.86801,,32.6157,,,,,,,,0,1709394001,2,9,9,2,9,9,9
2024-03-02 16:00:02+00:00,,,,,,,13.2562,,,,,,,,,,,,,,,,,,,,,3.86927,,32.6204,,,,,,,,0,1709395202,2,9,9,2,9,9,9
2024-03-02 16:20:01+00:00,,,,,,,13.2909,,,,,,,,,,,,,,,,,,,,,3.87238,,32.6199,,,,,,,,0,1709396401,2,9,9,2,9,9,9
2024-03-02 16:40:02+00:00,,,,,,,13.3142,,,,,,,,,,,,,,,,,,,,,3.87439,,32.6187,,,,,,,,0,1709397602,2,9,9,2,9,9,9
2024-03-02 17:00:02+00:00,,,,,,,13.3186,,,,,,,,,,,,,,,,,,,,,3.87467,,32.6176,,,,,,,,0.08,1709398802,2,9,9,2,9,9,9
2024-03-02 17:20:02+00:00,,,,,,,13.2828,,,,,,,,,,,,,,,,,,,,,3.874,,32.642,,,,,,,,0,1709400002,2,9,9,2,9,9,9
2024-03-02 17:40:01+00:00,,,,,,,13.314,,,,,,,,,,,,,,,,,,,,,3.87469,,32.6217,,,,,,,,0,1709401201,2,9,9,2,9,9,9
2024-03-02 18:00:02+00:00,,,,,,,13.3481,,,,,,,,,,,,,,,,,,,,,3.87694,,32.6136,,,,,,,,0,1709402402,2,9,9,2,9,9,9
2024-03-02 18:20:02+00:00,,,,,,,13.3045,,,,,,,,,,,,,,,,,,,,,3.87263,,32.6106,,,,,,,,0,1709403602,2,9,9,2,9,9,9
2024-03-02 18:40:02+00:00,,,,,,,13.3147,,,,,,,,,,,,,,,,,,,,,3.87186,,32.5945,,,,,,,,1.77333333333333,1709404802,2,9,9,2,9,9,9
2024-03-02 19:00:02+00:00,,,,,,,13.3142,,,,,,,,,,,,,,,,,,,,,3.87234,,32.5994,,,,,,,,0.133333333333333,1709406002,2,9,9,2,9,9,9
2024-03-02 19:20:02+00:00,,,,,,,13.3845,,,,,,,,,,,,,,,,,,,,,3.87239,,32.5398,,,,,,,,0,1709407202,2,9,9,2,9,9,9
2024-03-02 19:40:01+00:00,,,,,,,13.472,,,,,,,,,,,,,,,,,,,,,3.87564,,32.4955,,,,,,,,0,1709408401,2,9,9,2,9,9,9
2024-03-02 20:00:02+00:00,,,,,,,13.5099,,,,,,,,,,,,,,,,,,,,,3.87767,,32.4822,,,,,,,,0,1709409602,2,9,9,2,9,9,9
2024-03-02 20:20:02+00:00,,,,,,,13.5038,,,,,,,,,,,,,,,,,,,,,3.8766,,32.4775,,,,,,,,0,1709410802,2,9,9,2,9,9,9
2024-03-02 20:40:01+00:00,,,,,,,13.5271,,,,,,,,,,,,,,,,,,,,,3.88036,,32.4928,,,,,,,,0,1709412001,2,9,9,2,9,9,9
2024-03-02 21:00:02+00:00,,,,,,,13.5404,,,,,,,,,,,,,,,,,,,,,3.8816,,32.4929,,,,,,,,0,1709413202,2,9,9,2,9,9,9
2024-03-02 21:20:02+00:00,,,,,,,13.5258,,,,,,,,,,,,,,,,,,,,,3.88139,,32.5035,,,,,,,,0,1709414402,2,9,9,2,9,9,9
2024-03-02 21:40:02+00:00,,,,,,,13.5444,,,,,,,,,,,,,,,,,,,,,3.88364,,32.5085,,,,,,,,0,1709415602,2,9,9,2,9,9,9
2024-03-02 22:00:02+00:00,,,,,,,13.5518,,,,,,,,,,,,,,,,,,,,,3.88415,,32.507,,,,,,,,0,1709416802,2,9,9,2,9,9,9
2024-03-02 22:20:02+00:00,,,,,,,13.57,,,,,,,,,,,,,,,,,,,,,3.88571,,32.5061,,,,,,,,0,1709418002,2,9,9,2,9,9,9
2024-03-02 22:40:02+00:00,,,,,,,13.5453,,,,,,,,,,,,,,,,,,,,,3.88518,,32.5222,,,,,,,,0.533333333333333,1709419202,2,9,9,2,9,9,9
2024-03-02 23:00:02+00:00,,,,,,,13.5348,,,,,,,,,,,,,,,,,,,,,3.88297,,32.5105,,,,,,,,0.213333333333333,1709420402,2,9,9,2,9,9,9
2024-03-02 23:20:02+00:00,,,,,,,13.5251,,,,,,,,,,,,,,,,,,,,,3.87965,,32.4878,,,,,,,,0.44,1709421602,2,9,9,2,9,9,9
2024-03-02 23:40:02+00:00,,,,,,,13.5546,,,,,,,,,,,,,,,,,,,,,3.88602,,32.5221,,,,,,,,0,1709422802,2,9,9,2,9,9,9
2024-03-03 00:00:02+00:00,,,,,,,13.5946,,,,,,,,,,,,,,,,,,,,,3.89026,,32.5276,,,,,,,,0,1709424002,2,9,9,2,9,9,9
2024-03-03 00:20:02+00:00,,,,,,,13.5543,,,,,,,,,,,,,,,,,,,,,3.88812,,32.5419,,,,,,,,0,1709425202,2,9,9,2,9,9,9
2024-03-03 00:40:02+00:00,,,,,,,13.5463,,,,,,,,,,,,,,,,,,,,,3.8858,,32.5271,,,,,,,,0,1709426402,2,9,9,2,9,9,9
2024-03-03 01:00:02+00:00,,,,,,,13.5497,,,,,,,,,,,,,,,,,,,,,3.88557,,32.5221,,,,,,,,0.506666666666667,1709427602,2,9,9,2,9,9,9
2024-03-03 01:20:02+00:00,,,,,,,13.5584,,,,,,,,,,,,,,,,,,,,,3.88616,,32.5201,,,,,,,,5.57333333333333,1709428802,2,9,9,2,9,9,9
2024-03-03 01:40:01+00:00,,,,,,,13.5678,,,,,,,,,,,,,,,,,,,,,3.8874,,32.5237,,,,,,,,0,1709430001,2,9,9,2,9,9,9
2024-03-03 02:00:02+00:00,,,,,,,13.5785,,,,,,,,,,,,,,,,,,,,,3.88915,,32.5309,,,,,,,,0,1709431202,2,9,9,2,9,9,9
2024-03-03 02:20:02+00:00,,,,,,,13.5672,,,,,,,,,,,,,,,,,,,,,3.88848,,32.5343,,,,,,,,0,1709432402,2,9,9,2,9,9,9
2024-03-03 02:40:02+00:00,,,,,,,13.5555,,,,,,,,,,,,,,,,,,,,,3.88734,,32.5337,,,,,,,,0,1709433602,2,9,9,2,9,9,9
2024-03-03 03:00:01+00:00,,,,,,,13.47,,,,,,,,,,,,,,,,,,,,,3.87675,,32.5076,,,,,,,,0,1709434801,2,9,9,2,9,9,9
2024-03-03 03:20:02+00:00,,,,,,,13.4723,,,,,,,,,,,,,,,,,,,,,3.87374,,32.4775,,,,,,,,0,1709436002,2,9,9,2,9,9,9
2024-03-03 03:40:01+00:00,,,,,,,13.4793,,,,,,,,,,,,,,,,,,,,,3.87721,,32.5039,,,,,,,,0,1709437201,2,9,9,2,9,9,9
2024-03-03 04:00:02+00:00,,,,,,,13.4684,,,,,,,,,,,,,,,,,,,,,3.87726,,32.5137,,,,,,,,0,1709438402,2,9,9,2,9,9,9
2024-03-03 04:20:01+00:00,,,,,,,13.4949,,,,,,,,,,,,,,,,,,,,,3.87811,,32.4991,,,,,,,,0,1709439601,2,9,9,2,9,9,9
2024-03-03 04:40:02+00:00,,,,,,,13.4879,,,,,,,,,,,,,,,,,,,,,3.87862,,32.5098,,,,,,,,0,1709440802,2,9,9,2,9,9,9
2024-03-03 05:00:01+00:00,,,,,,,13.4912,,,,,,,,,,,,,,,,,,,,,3.8799,,32.519,,,,,,,,0.12,1709442001,2,9,9,2,9,9,9
2024-03-03 05:20:02+00:00,,,,,,,13.4854,,,,,,,,,,,,,,,,,,,,,3.88091,,32.5334,,,,,,,,0,1709443202,2,9,9,2,9,9,9
2024-03-03 05:40:02+00:00,,,,,,,13.4799,,,,,,,,,,,,,,,,,,,,,3.87996,,32.5292,,,,,,,,10.6933333333333,1709444402,2,9,9,2,9,9,9
2024-03-03 06:00:02+00:00,,,,,,,13.4426,,,,,,,,,,,,,,,,,,,,,3.87946,,32.5563,,,,,,,,0.253333333333333,1709445602,2,9,9,2,9,9,9
2024-03-03 06:20:02+00:00,,,,,,,13.4598,,,,,,,,,,,,,,,,,,,,,3.88103,,32.5563,,,,,,,,7.22666666666667,1709446802,2,9,9,2,9,9,9
2024-03-03 06:40:02+00:00,,,,,,,13.4534,,,,,,,,,,,,,,,,,,,,,3.88314,,32.5814,,,,,,,,0,1709448002,2,9,9,2,9,9,9
2024-03-03 07:00:02+00:00,,,,,,,13.4667,,,,,,,,,,,,,,,,,,,,,3.88301,,32.5689,,,,,,,,1.34666666666667,1709449202,2,9,9,2,9,9,9
2024-03-03 07:20:02+00:00,,,,,,,13.4628,,,,,,,,,,,,,,,,,,,,,3.88454,,32.5865,,,,,,,,0,1709450402,2,9,9,2,9,9,9
2024-03-03 07:40:02+00:00,,,,,,,13.4538,,,,,,,,,,,,,,,,,,,,,3.88371,,32.5865,,,,,,,,0,1709451602,2,9,9,2,9,9,9
2024-03-03 08:00:02+00:00,,,,,,,13.4387,,,,,,,,,,,,,,,,,,,,,3.88463,,32.608,,,,,,,,0,1709452802,2,9,9,2,9,9,9
2024-03-03 08:20:02+00:00,,,,,,,13.4438,,,,,,,,,,,,,,,,,,,,,3.88463,,32.6037,,,,,,,,4.68,1709454002,2,9,9,2,9,9,9
2024-03-03 08:40:01+00:00,,,,,,,13.4554,,,,,,,,,,,,,,,,,,,,,3.88522,,32.5993,,,,,,,,0.2,1709455201,2,9,9,2,9,9,9
2024-03-03 09:00:01+00:00,,,,,,,13.4338,,,,,,,,,,,,,,,,,,,,,3.88288,,32.5958,,,,,,,,5.94666666666667,1709456401,2,9,9,2,9,9,9
2024-03-03 09:20:01+00:00,,,,,,,13.4164,,,,,,,,,,,,,,,,,,,,,3.88366,,32.618,,,,,,,,0,1709457601,2,9,9,2,9,9,9
2024-03-03 09:40:02+00:00,,,,,,,13.3932,,,,,,,,,,,,,,,,,,,,,3.87897,,32.594,,,,,,,,11.96,1709458802,2,9,9,2,9,9,9
2024-03-03 10:00:02+00:00,,,,,,,13.3901,,,,,,,,,,,,,,,,,,,,,3.8795,,32.6015,,,,,,,,0,1709460002,2,9,9,2,9,9,9
2024-03-03 10:20:02+00:00,,,,,,,13.4018,,,,,,,,,,,,,,,,,,,,,3.88165,,32.6117,,,,,,,,5.6,1709461202,2,9,9,2,9,9,9
2024-03-03 10:40:02+00:00,,,,,,,13.405,,,,,,,,,,,,,,,,,,,,,3.88201,,32.6123,,,,,,,,0,1709462402,2,9,9,2,9,9,9
2024-03-03 11:00:02+00:00,,,,,,,13.4095,,,,,,,,,,,,,,,,,,,,,3.88314,,32.619,,,,,,,,0,1709463602,2,9,9,2,9,9,9
2024-03-03 11:20:02+00:00,,,,,,,13.4322,,,,,,,,,,,,,,,,,,,,,3.88689,,32.6347,,,,,,,,0,1709464802,2,9,9,2,9,9,9
2024-03-03 11:40:02+00:00,,,,,,,13.4498,,,,,,,,,,,,,,,,,,,,,3.88946,,32.6437,,,,,,,,0,1709466002,2,9,9,2,9,9,9
2024-03-03 12:00:02+00:00,,,,,,,13.4386,,,,,,,,,,,,,,,,,,,,,3.88938,,32.6525,,,,,,,,0.226666666666667,1709467202,2,9,9,2,9,9,9
2024-03-03 12:20:02+00:00,,,,,,,13.4403,,,,,,,,,,,,,,,,,,,,,3.88856,,32.6434,,,,,,,,39.1866666666667,1709468402,2,9,9,2,9,9,9
2024-03-03 12:40:02+00:00,,,,,,,13.4194,,,,,,,,,,,,,,,,,,,,,3.88789,,32.655,,,,,,,,0,1709469602,2,9,9,2,9,9,9
2024-03-03 13:00:02+00:00,,,,,,,13.3805,,,,,,,,,,,,,,,,,,,,,3.88373,,32.6494,,,,,,,,0,1709470802,2,9,9,2,9,9,9
2024-03-03 13:20:02+00:00,,,,,,,13.3613,,,,,,,,,,,,,,,,,,,,,3.88039,,32.6346,,,,,,,,0,1709472002,2,9,9,2,9,9,9
2024-03-03 13:40:02+00:00,,,,,,,13.3541,,,,,,,,,,,,,,,,,,,,,3.87752,,32.6139,,,,,,,,22.76,1709473202,2,9,9,2,9,9,9
2024-03-03 14:00:02+00:00,,,,,,,13.377,,,,,,,,,,,,,,,,,,,,,3.87875,,32.6057,,,,,,,,0,1709474402,2,9,9,2,9,9,9
2024-03-03 14:20:02+00:00,,,,,,,13.3839,,,,,,,,,,,,,,,,,,,,,3.87783,,32.5913,,,,,,,,0.0666666666666667,1709475602,2,9,9,2,9,9,9
2024-03-03 14:40:02+00:00,,,,,,,13.4084,,,,,,,,,,,,,,,,,,,,,3.87893,,32.5806,,,,,,,,0,1709476802,2,9,9,2,9,9,9
2024-03-03 15:00:02+00:00,,,,,,,13.4164,,,,,,,,,,,,,,,,,,,,,3.87967,,32.5806,,,,,,,,0,1709478002,2,9,9,2,9,9,9
2024-03-03 15:20:02+00:00,,,,,,,13.3931,,,,,,,,,,,,,,,,,,,,,3.87761,,32.5813,,,,,,,,7.04,1709479202,2,9,9,2,9,9,9
2024-03-03 15:40:01+00:00,,,,,,,13.3677,,,,,,,,,,,,,,,,,,,,,3.87397,,32.569,,,,,,,,0,1709480401,2,9,9,2,9,9,9
2024-03-03 16:00:02+00:00,,,,,,,13.3398,,,,,,,,,,,,,,,,,,,,,3.86926,,32.5487,,,,,,,,0,1709481602,2,9,9,2,9,9,9
2024-03-03 16:20:02+00:00,,,,,,,13.3117,,,,,,,,,,,,,,,,,,,,,3.8658,,32.5403,,,,,,,,5.13333333333333,1709482802,2,9,9,2,9,9,9
2024-03-03 16:40:02+00:00,,,,,,,13.3295,,,,,,,,,,,,,,,,,,,,,3.86721,,32.5383,,,,,,,,0,1709484002,2,9,9,2,9,9,9
2024-03-03 17:00:02+00:00,,,,,,,13.3519,,,,,,,,,,,,,,,,,,,,,3.8712,,32.5565,,,,,,,,0.573333333333333,1709485202,2,9,9,2,9,9,9
2024-03-03 17:20:02+00:00,,,,,,,13.3675,,,,,,,,,,,,,,,,,,,,,3.87242,,32.5546,,,,,,,,0.426666666666667,1709486402,2,9,9,2,9,9,9
2024-03-03 17:40:02+00:00,,,,,,,13.3766,,,,,,,,,,,,,,,,,,,,,3.87073,,32.531,,,,,,,,0,1709487602,2,9,9,2,9,9,9
2024-03-03 18:00:02+00:00,,,,,,,13.3675,,,,,,,,,,,,,,,,,,,,,3.87156,,32.5466,,,,,,,,0.0266666666666667,1709488802,2,9,9,2,9,9,9
2024-03-03 18:20:02+00:00,,,,,,,13.3783,,,,,,,,,,,,,,,,,,,,,3.87317,,32.5524,,,,,,,,0,1709490002,2,9,9,2,9,9,9
2024-03-03 18:40:02+00:00,,,,,,,13.3835,,,,,,,,,,,,,,,,,,,,,3.8741,,32.5567,,,,,,,,0,1709491202,2,9,9,2,9,9,9
2024-03-03 19:00:02+00:00,,,,,,,13.4088,,,,,,,,,,,,,,,,,,,,,3.87674,,32.5598,,,,,,,,0,1709492402,2,9,9,2,9,9,9
2024-03-03 19:20:02+00:00,,,,,,,13.402,,,,,,,,,,,,,,,,,,,,,3.87706,,32.5685,,,,,,,,0,1709493602,2,9,9,2,9,9,9